RH
16 30 44 44 48 58 64 70 73 75 71 73 70 73 75 71 72 72 79 77 79 77 72 78 80 79 81 81 84 83 79 77
16 21 24 38 52 59 62 72 78 76 72 73 73 76 73 73 71 75 77 78 80 79 76 79 79 75 79 84 83 92 94 80
18 20 23 28 28 53 59 66 73 77 70 69 64 68 69 69 70 74 75 76 79 78 75 73 74 70 78 85 89 94 89 79
19 20 23 28 30 36 44 57 67 75 72 70 73 72 76 83 76 79 76 75 76 78 76 74 76 75 81 90 94 89 89 75
18 19 22 26 32 34 34 37 57 72 77 74 77 71 74 75 72 72 82 77 75 76 78 78 79 76 82 87 91 91 83 78
21 21 20 21 27 36 44 42 41 62 75 75 79 76 69 66 73 77 85 87 81 80 82 81 81 80 83 86 90 86 79 74
24 23 23 22 24 38 54 59 53 62 75 78 81 81 75 77 80 81 87 92 88 86 84 84 83 84 87 85 85 84 76 70
28 24 22 24 29 41 61 65 64 74 81 80 83 83 82 83 81 81 91 94 93 91 88 89 85 87 87 83 82 77 75 66
26 25 27 27 35 38 52 66 66 74 81 81 80 83 88 82 78 79 86 90 83 85 87 85 83 83 82 82 88 86 81 79
25 25 30 31 33 36 50 57 65 72 78 82 80 84 89 89 86 84 87 82 83 86 85 84 82 80 84 84 84 83 76 82
37 34 32 30 30 36 42 43 42 56 74 80 81 83 87 87 89 89 86 86 84 86 87 82 79 81 81 77 82 75 81 80
40 40 39 39 44 49 59 58 52 52 65 78 84 84 86 89 91 92 90 87 82 82 81 81 78 77 77 79 75 75 86 87
37 35 36 35 40 47 62 78 75 69 64 73 85 86 90 94 96 95 92 88 81 79 77 77 75 76 82 83 81 86 77 75
28 25 26 33 38 42 52 72 78 83 79 81 88 94 97 98 96 93 90 87 81 78 77 78 77 82 81 83 88 91 86 76
25 25 26 27 37 44 55 63 75 80 90 94 98 99 98 97 93 92 90 86 83 80 79 80 83 83 78 90 89 86 86 70
22 26 27 22 33 42 45 58 77 84 91 96 98 98 96 95 94 93 89 87 82 79 78 80 84 86 87 88 81 82 73 74
20 24 21 20 32 44 51 55 73 85 89 93 94 96 97 95 94 93 91 88 83 82 79 79 86 82 92 86 76 76 75 77
22 24 22 24 33 52 52 54 65 82 88 93 94 95 98 96 94 94 92 91 88 86 85 86 88 88 90 88 84 71 81 75
24 22 25 29 35 42 53 50 63 80 86 88 95 96 100 100 98 99 99 96 98 94 99 95 92 93 90 89 86 89 81 83
Wind_Speed
15 15 17 17 16 15 16 15 17 17 13 12 10 10 11 11 12 12 15 13 15 13 10 11 10 8 8 8 8 7 5 5
13 11 10 13 12 15 17 16 17 13 13 13 12 13 12 12 12 15 16 14 16 15 11 11 11 11 11 10 8 7 4 3
13 13 12 10 12 15 16 18 17 17 13 13 10 11 11 11 11 14 16 17 16 15 14 12 13 10 12 11 10 4 2 4
13 12 14 12 12 12 16 19 19 18 18 11 9 6 6 10 13 12 15 17 17 17 16 13 13 11 10 11 9 10 5 3
14 14 13 13 13 10 12 14 16 16 16 14 19 15 13 12 11 11 11 17 17 17 15 15 14 11 12 11 8 8 6 6
14 15 17 16 12 12 12 14 16 18 19 18 14 16 11 7 9 14 12 13 16 16 16 16 14 11 12 12 10 9 7 6
13 13 11 11 9 10 11 15 17 17 18 20 19 19 15 11 12 12 10 9 11 16 16 15 14 12 12 11 11 10 8 5
7 9 9 8 7 7 7 12 14 16 17 17 19 18 17 16 15 12 12 10 9 14 16 14 12 11 9 9 11 11 8 8
8 9 9 8 7 6 9 12 13 15 17 19 17 17 11 12 15 12 12 12 13 15 14 13 13 11 10 9 6 5 7 7
10 10 8 10 8 8 9 10 13 14 17 15 17 15 15 14 15 14 11 12 10 14 14 13 12 12 12 11 8 9 8 7
12 11 10 8 9 8 7 10 13 14 15 14 15 17 17 15 13 15 16 12 13 14 14 14 14 13 13 13 10 12 11 7
11 12 11 7 7 7 7 8 11 12 12 14 14 15 16 14 13 13 13 13 15 15 15 14 16 15 13 11 11 12 9 9
11 12 12 13 11 10 8 6 7 10 11 12 13 12 12 13 12 11 12 13 15 16 16 15 15 14 12 12 12 9 11 10
14 14 13 13 14 14 12 8 8 8 9 11 11 10 11 11 11 12 13 13 14 15 15 16 16 13 13 11 11 10 4 7
14 13 14 14 12 13 13 11 8 7 6 6 7 8 9 10 11 12 13 13 15 15 14 15 15 14 15 12 12 10 10 9
17 15 14 15 14 13 14 11 9 6 5 5 7 8 10 10 10 11 12 13 13 14 16 14 14 13 10 13 13 13 12 11
18 16 17 16 14 14 13 12 8 7 7 8 7 8 9 10 11 12 12 11 13 14 15 17 15 8 17 17 16 13 12 11
19 17 15 13 12 11 14 15 10 8 9 7 8 8 8 10 11 12 12 13 14 14 14 14 13 11 20 19 15 12 10 11
17 16 14 12 13 13 13 13 11 9 10 9 8 9 10 8 11 12 11 12 14 14 13 13 13 11 20 19 15 10 10 10
Wind_Direction
241 227 226 223 220 212 210 206 210 202 198 199 204 209 211 212 210 208 197 199 197 198 201 198 193 197 204 203 206 202 222 230
257 254 223 225 228 214 213 207 205 191 197 199 204 211 209 209 216 211 203 197 198 200 201 198 197 202 202 200 199 186 178 192
257 263 267 233 221 216 217 215 205 199 196 204 207 207 216 214 207 214 209 203 197 199 202 202 201 204 204 201 189 146 124 169
249 247 249 255 245 224 221 219 208 204 204 195 197 183 203 200 210 205 207 204 200 199 200 201 200 201 198 195 182 177 150 181
246 249 250 237 237 238 230 225 217 209 199 196 198 202 199 211 209 199 194 205 203 197 196 198 198 197 197 195 178 174 136 170
231 235 241 239 236 241 237 225 214 205 197 200 201 212 216 205 192 190 192 195 199 193 193 196 199 199 198 189 168 169 180 173
233 238 248 241 224 222 220 218 216 203 202 202 203 209 208 198 192 186 188 189 194 190 189 193 196 194 186 184 182 173 167 165
263 272 260 251 227 224 213 213 212 201 202 205 210 211 209 206 195 189 177 181 193 193 184 185 189 182 171 166 174 174 158 163
267 264 269 262 239 215 204 210 214 203 204 211 208 207 206 209 201 194 188 191 194 186 184 180 176 164 162 155 148 143 141 142
287 286 270 278 279 251 221 216 220 210 209 210 211 203 201 202 200 195 188 186 194 174 173 166 160 153 144 143 144 141 129 124
351 342 324 297 288 290 282 258 244 232 225 212 207 203 202 202 192 191 186 177 170 166 166 158 154 148 147 148 144 150 141 143
342 345 349 339 325 318 299 278 263 250 233 218 212 207 202 197 190 183 176 169 168 164 165 157 157 152 146 138 143 146 132 126
335 344 345 350 348 343 331 311 268 255 245 230 215 210 194 186 178 163 157 162 169 167 160 155 150 143 140 136 136 139 142 149
338 345 349 348 345 339 338 317 299 274 246 226 211 189 178 174 161 153 159 156 158 156 151 149 147 140 137 135 133 128 127 151
331 336 342 342 341 336 337 328 305 291 238 199 168 154 160 157 157 157 153 158 152 151 150 147 142 140 140 137 134 143 143 166
322 324 330 332 331 336 343 334 307 280 207 163 165 153 156 156 153 157 150 158 154 151 148 144 141 143 145 143 147 139 153 152
312 311 318 325 328 330 330 331 304 262 228 200 168 161 159 161 154 152 151 151 151 150 152 151 145 144 141 141 151 150 159 157
302 298 309 314 318 318 322 319 318 252 231 194 179 167 158 156 153 159 159 156 152 151 148 144 138 130 136 136 141 149 148 164
289 293 301 305 311 306 310 314 306 263 238 202 188 174 163 165 163 159 153 156 156 151 141 138 130 133 135 135 136 134 152 144